HUANJING 1B (HJ-1B)

Last updated on Thu Oct 30 2025 00:02:31 GMT+0000 (Coordinated Universal Time)

1 33321U 08041B 25302.51987890 .00001613 00000+0 20440-3 0 9997 2 33321 97.6386 296.4862 0035687 218.6460 141.2200 14.82654731924226
UTC large
Height (km)
Speed (km/s)
/
Latitude / Longitude
Inclination (degrees)
Orbital Period (minutes)
Azimuth
Elevation
Range (km)
Doppler Factor

Next 0 passes for location: London (51.5072 / 0.1276)

Sorry there are no passes over London.